Portada
METAR-TAF:

METAR-TAF

Aeroports :

Hilton Head Airport

Hilton Head Island, Carolina del Sud, Estats Units d'Amèrica

latitud: 32-13N, longitud: 080-42W, altitud: 6 m

Observació

L'informe es va fer fa 18 minuts, a les 14:21 UTC
Vent 5 kt del Nord-Est
Temperatura 24°C
Humitat 89%
Pressió 1018 hPa
Visibilitat: 14.5 km
Núvols disperses a una alçada de 400 ft

METAR: KHXD 241421Z 04005KT 9SM SCT004 24/22 A3006

Hora: 10:39 (14:39 UTC)


TAF: manca

Observacions i pronòstics meteorològics de més de 4000 aeroports (METAR i TAF).

Les estacions disponibles són els punts grocs i vermells al mapa.

Posi el ratolí al punt desitjat per veure el nom de l'estació.

Feu clic per veure les observacions i els pronòstics meteorològics.

Per canviar el mapa: feu clic els botons verds amb una creu de color negre per apropar; al botó verd amb un guió per allunyar la imatge; o en les fletxes verdes per a mapes adjacents.


METAR-TAF: